Regional Weather Roundup
Issued by NWS

Home | Current Version | Previous Version | Graphics & Text | Print | Product List | Glossary On
Versions: 1 2 3 4 5 6 7 8 9 10 11 12 13 14 15 16 17 18 19 20 21 22 23 24 25 26 27 28 29 30 31 32 33 34 35 36 37 38 39 40 41 42 43 44 45 46 47 48 49 50
000
ASUS43 KMPX 171410
RWRMN
WEATHER ROUNDUP FOR MINNESOTA
NATIONAL WEATHER SERVICE TWIN CITIES/CHANHASSEN MN
800 AM CST WED JAN 17 2018


NOTE: "FAIR" INDICATES FEW OR NO CLOUDS BELOW 12,000 FEET WITH NO
SIGNIFICANT WEATHER AND/OR OBSTRUCTIONS TO VISIBILITY. N/A MEANS
CURRENT SKY AND/OR WEATHER CONDITIONS ARE NOT AVAILABLE.

MNZ060>063-068>070-171500-
   Twin Cities Metro

CITY           SKY/WX    TMP DP  RH WIND       PRES   REMARKS
TWIN CITIES    FAIR       6   0  76 SW6       30.33F WCI  -4
ST PAUL        FAIR      -2  -5  87 S8        30.35F WCI -17
CRYSTAL        FAIR       5  -4  66 S9        30.30F WCI  -9
BLAINE         PTCLDY     7   0  72 S13       30.29F WCI  -9
LAKEVILLE      FAIR       7   0  72 SW3       30.33F
EDEN PRAIRIE   FAIR       4  -3  73 SW8       30.31F WCI  -9
SOUTH ST PAUL  FAIR       0  -5  79 S3        30.34F
LAKE ELMO      FAIR       1  -4  78 S8        30.33F WCI -12
$$
MNZ001>005-007-008-013>017-022>024-027-028-171500-
   Northwest Minnesota

CITY           SKY/WX    TMP DP  RH WIND       PRES   REMARKS
BEMIDJI        FAIR      14  -1  52 SW9       30.01F WCI   2
HALLOCK        FAIR       5   0  78 S21       29.94F WCI -16
ROSEAU         FAIR       9   1  72 SW12      29.92F WCI  -6
WARROAD        FAIR       9   1  72 SW17G24   29.89F WCI -10
THIEF RVR FALL FLURRIES   5  -1  76 SW21G28   30.00F WCI -16
CROOKSTON      FAIR       7   1  78 SW22      30.06F WCI -14
FOSSTON        FAIR       3  -2  78 S17       30.05F WCI -17
DETROIT LAKES  FAIR       9   1  72 S9        30.10F WCI  -5
MOORHEAD       FAIR       5  -2  72 S13       30.13S WCI -12
PARK RAPIDS    FAIR       4  -4  69 S8        30.07F WCI  -9
MAHNOMEN       FAIR       5  -2  72 SW12      30.08S WCI -11
$$
MNZ006-009>011-018-025>026-171500-
   North Central Minnesota

CITY           SKY/WX    TMP DP  RH WIND       PRES   REMARKS
BAUDETTE       FAIR      11   1  64 SW12      29.90F WCI  -3
FLAG ISLAND    FAIR       7   0  72 S7        29.88S WCI  -5
INTL FALLS     FAIR       8  -2  63 SW7       29.93F WCI  -3
WASKISH        FAIR      10   3  72 SW9       29.97S WCI  -2
BIG FORK       FAIR      10   0  61 SW10      29.99F WCI  -3
LONGVILLE      FAIR       7  -2  66 S7        30.09F WCI  -5
GRAND RAPIDS   FAIR       7  -2  66 S9        30.08F WCI  -7
CRANE LAKE     FAIR       9  -2  61 S6        29.98F WCI  -1
ORR            FAIR       7  -2  66 S5        29.94F WCI  -2
COOK           FAIR       9   0  66 SW10      29.98F WCI  -6
WALKER         FAIR      10  -3  55 SW10      30.05F WCI  -4
$$
MNZ012-019>021-037-171500-
   Northeast Minnesota

CITY           SKY/WX    TMP DP  RH WIND       PRES   REMARKS
DULUTH         FAIR       3  -3  76 SW16      30.08F WCI -16
ELY            FAIR       7  -2  66 SW9       29.97F WCI  -7
HIBBING        FAIR       5  -2  72 S7        30.04F WCI  -7
EVELETH        FAIR       5  -4  66 SW10      30.05F WCI -10
DULUTH HARBOR  FAIR       7   0  72 SW15      30.18F WCI -11
TWO HARBORS    FAIR      10   0  61 SW12      30.07F WCI  -4
GRAND MARAIS     N/A     18   2  49 W9G18     30.02F WCI   7
G MARAIS ARPRT FAIR      10  -4  52 SW9       29.92F WCI  -2
$$
MNZ029>031-032-039>041-046>048-054>057-064-171500-
   West Central Minnesota

CITY           SKY/WX    TMP DP  RH WIND       PRES   REMARKS
FERGUS FALLS   FAIR       3  -2  78 S10       30.21F WCI -12
WHEATON        CLOUDY     7   0  72 S12       30.19F WCI  -9
MORRIS         CLOUDY     1  -2  85 SE9       30.20F WCI -14
ALEXANDRIA     FAIR       6  -2  69 SW16      30.17F WCI -12
ELBOW LAKE     FAIR       3  -3  78 S12       30.18F WCI -14
WADENA         FAIR       7  -2  66 SW7       30.11F WCI  -5
GLENWOOD       FAIR       3   0  85 SW14      30.19F WCI -15
APPLETON       CLOUDY     9   0  66 S6        30.24F WCI  -1
BENSON         CLOUDY     3  -2  78 SW9       30.24F WCI -11
ORTONVILLE     CLOUDY     7  -2  66 S7        30.20F WCI  -5
MADISON        CLOUDY    10   1  67 S5        30.24F WCI   2
WILLMAR        FAIR       3  -2  78 CALM      30.27F
$$
MNZ033>034-036-042>043-049>051-058-059-171500-
   Central Minnesota

CITY           SKY/WX    TMP DP  RH WIND       PRES   REMARKS
ST CLOUD       FAIR       3  -1  83 S7        30.24F WCI  -9
SAUK CENTRE      N/A      5  -2  74 SW8       30.19F WCI  -8
PAYNESVILLE    FAIR       6   1  79 SW9       30.23F WCI  -8
AITKIN         FAIR       7  -2  66 S7        30.12F WCI  -5
PINE RIVER     FAIR       5  -2  72 SE3       30.14F
BRAINERD       FAIR       6  -2  69 S9        30.14F WCI  -8
STAPLES        FAIR       7  -2  66 S6        30.13F WCI  -3
LONG PRAIRIE   FAIR       5   0  78 S14       30.17F WCI -12
LITTLE FALLS   FAIR       5  -6  61 S7        30.20F WCI  -7
LITCHFIELD     FAIR       5   0  78 SW5       30.26F WCI  -4
BUFFALO        FAIR       3  -3  77 S8        30.29F WCI -11
MAPLE LAKE     FAIR       5   0  79 MISG      30.27F
HUTCHINSON     FAIR       5  -1  77 S8        30.29F WCI  -8
$$
MNZ037-044-045-052-053-171500-
   East Central Minnesota

CITY           SKY/WX    TMP DP  RH WIND       PRES   REMARKS
PRINCETON      FAIR       5  -2  72 S7        30.24F WCI  -7
MORA           FAIR       5  -2  72 SW8       30.24F WCI  -8
CAMBRIDGE      FAIR       5  -4  66 S7        30.26F WCI  -7
RUSH CITY      FAIR       3  -3  74 S8        30.26F WCI -10
MOOSE LAKE     FAIR       3  -4  72 SW12      30.16F WCI -13
HINCKLEY       FAIR       3   0  85 S9        30.23F WCI -11
CLOQUET        FAIR       1  -6  71 SW9       30.12F WCI -14
MCGREGOR       FAIR       9   1  72 SW9       30.14F WCI  -5
$$
MNZ071>073-080-081-089-090-097-098-171500-
   Southwest Minnesota

CITY           SKY/WX    TMP DP  RH WIND       PRES   REMARKS
MONTEVIDEO     CLOUDY     7   0  72 SW7       30.25F WCI  -5
GRANITE FALLS  CLOUDY     7   1  75 S7        30.28F WCI  -5
CANBY          CLOUDY    13   2  63 SW3G18    30.24F
MARSHALL       CLOUDY    12   2  64 SW16G24   30.26F WCI  -5
REDWOOD FALLS  CLOUDY     7   0  73 S10       30.29F WCI  -8
OLIVIA         CLOUDY     9   1  72 S9        30.28F WCI  -5
PIPESTONE      CLOUDY     5   0  78 SW13      30.28F WCI -12
WINDOM         CLOUDY     9  -8  47 SW18G28   30.30F WCI -10
WORTHINGTON    CLOUDY     7   0  73 SW20G28   30.29F WCI -13
JACKSON        CLOUDY     9   1  72 SW18      30.32F WCI -10
SLAYTON        CLEAR      6   0  76 SW13      30.29S WCI -10
$$
MNZ065>067-074>077-082>085-091>093-171500-
   South Central Minnesota

CITY           SKY/WX    TMP DP  RH WIND       PRES   REMARKS
MANKATO        FAIR       2  -2  83 S12       30.34F WCI -15
NEW ULM        CLOUDY     7   0  72 S9        30.32F WCI  -7
ST JAMES       CLOUDY     9   1  72 S9        30.34F WCI  -5
FAIRMONT       CLOUDY     9   1  70 SW17      30.35F WCI  -9
FARIBAULT      FAIR       5   0  78 S9        30.35F WCI  -9
OWATONNA       FAIR       7   0  72 S12       30.35F WCI  -9
WASECA         FAIR       5   0  78 S13G18    30.37F WCI -12
ALBERT LEA     FAIR       7  -2  66 SW12      30.37F WCI  -9
$$
MNZ078>079-086>088-094>096-171500-
   Southeast Minnesota

CITY           SKY/WX    TMP DP  RH WIND       PRES   REMARKS
ROCHESTER      FAIR       5  -1  76 SW18      30.35F WCI -15
RED WING       FAIR      -6 -11  77 CALM      30.36F
STANTON        FAIR       7  -1  71 SW12      30.33F WCI  -9
DODGE CENTER   FAIR       1  -4  78 SW16      30.34F WCI -18
WINONA         FAIR      -2  -6  84 CALM      30.40F
AUSTIN         FAIR       0  -6  78 S7        30.39F WCI -13
PRESTON        FAIR       4  -3  73 SW10G16   30.38F WCI -11
$$
ABBREVIATIONS USED IN REMARKS
   TC - TEMPERATURES IN CELSIUS
  WCI - WIND CHILL INDEX
   HX - HEAT INDEX
  VSB - VISIBILITY
$$




USA.gov is the U.S. government's official web portal to all federal, state and local government web resources and services.